Regional Weather Roundup
Issued by NWS

Home | Current Version | Previous Version | Graphics & Text | Print | Product List | Glossary On
Versions: 1 2 3 4 5 6 7 8 9 10 11 12 13 14 15 16 17 18 19 20 21 22 23 24 25 26 27 28 29 30 31 32 33 34 35 36 37 38 39 40 41 42 43 44 45 46 47 48 49 50
369
ASUS43 KLMK 190502
RWRKY
KENTUCKY REGIONAL WEATHER ROUNDUP
NATIONAL WEATHER SERVICE LOUISVILLE KY
100 AM EDT THU OCT 19 2017

NOTE "FAIR" INDICATES FEW OR NO CLOUDS BELOW 12,000 FEET
WITH NO SIGNIFICANT WEATHER AND/OR OBSTRUCTIONS TO VISIBILITY.

KYZ001>023-026-027-061>063-070>075-190600-
WESTERN AND SOUTH CENTRAL KENTUCKY

CITY           SKY/WX    TMP DP  RH WIND       PRES   REMARKS
PADUCAH        PTCLDY    58  45  62 S5        30.18S
HENDERSON      PTCLDY    54  48  80 S9        30.18F
OWENSBORO      CLEAR     52  46  80 S7        30.20F
HOPKINSVILLE   CLEAR     55  45  69 S5        30.21S
BOWLING GREEN  CLEAR     47  45  93 CALM      30.22S
GLASGOW        NOT AVBL
$$

KYZ024-025-028>034-038-045-046-053-190600-
NORTH CENTRAL KENTUCKY

CITY           SKY/WX    TMP DP  RH WIND       PRES   REMARKS
LOUISVILLE/SDF PTCLDY    54  47  77 SE6       30.20F
LOUISVILLE/LOU CLEAR     51  47  86 CALM      30.21F
FORT KNOX      CLEAR     48  44  84 CALM      30.19F
$$

KYZ035>037-039>044-047>052-055>060-089>105-190600-
NORTHEAST KENTUCKY

CITY           SKY/WX    TMP DP  RH WIND       PRES   REMARKS
LEXINGTON      CLEAR     51  44  77 S7        30.22F
COVINGTON      CLEAR     52  46  80 S7        30.19S
FRANKFORT      CLEAR     48  42  80 CALM      30.20F
$$

KYZ054-064>069-076>088-106>120-190600-
SOUTHEAST KENTUCKY

CITY           SKY/WX    TMP DP  RH WIND       PRES   REMARKS
JACKSON        CLEAR     52  45  77 CALM      30.24F
LONDON         CLEAR     46  43  89 CALM      30.25F
SOMERSET       NOT AVBL
MIDDLESBORO    CLEAR     44  44 100 CALM      30.29F
MONTICELLO     CLEAR     42  41  96 NW9       30.27S
$$





USA.gov is the U.S. government's official web portal to all federal, state and local government web resources and services.